EW6020 Weather Reports


Display with metric or nautical units.
time (UTC)temp
F
wind
direction
speed
MPH
gust
MPH
rain 1hr
in
rain 24hr
in
rain mn
in
humidity
%
barometer
mb
20260502201543 62 179 0.0 3.0 0.00 0.00 0.00 70 1012.7
20260502200044 61 179 3.0 8.0 0.00 0.00 0.00 72 1012.9
20260502194538 60 179 2.0 5.0 0.00 0.00 0.00 74 1013.2
20260502193039 58 179 4.0 10.0 0.00 0.00 0.00 80 1013.4
20260502191539 55 158 9.0 13.0 0.00 0.00 0.00 83 1013.6
20260502190042 56 141 1.0 9.0 0.00 0.00 0.00 78 1013.3
20260502184538 58 179 2.0 10.0 0.00 0.00 0.00 74 1013.3
20260502183033 59 179 2.0 9.0 0.00 0.00 0.00 71 1013.3
20260502181537 59 179 2.0 9.0 0.00 0.00 0.00 72 1013.4
20260502163030 52 153 2.0 4.0 0.00 0.00 0.00 82 1014.4
20260502161522 52 151 4.0 7.0 0.00 0.00 0.00 83 1014.3
20260502151527 50 179 3.0 8.0 0.00 0.00 0.00 85 1014.5
20260502123050 0 0.0 0.0 0.00 0.00 0.00 1014.3
20260502121541 47 224 2.0 7.0 0.00 0.00 0.00 83 1014.2
20260502114538 48 179 0.0 3.0 0.00 0.00 0.00 82 1014.0
20260502113037 49 178 0.0 4.0 0.00 0.00 0.00 81 1013.9
20260502111539 49 155 1.0 4.0 0.00 0.00 0.00 81 1014.2
20260502110034 49 155 2.0 11.0 0.00 0.00 0.00 81 1014.0
20260502104536 49 178 3.0 12.0 0.00 0.00 0.00 80 1013.5
20260502103030 49 156 4.0 8.0 0.00 0.00 0.00 81 1013.8
20260502101526 49 150 3.0 8.0 0.00 0.00 0.00 82 1013.9
20260502091517 50 166 2.0 4.0 0.00 0.00 0.00 89 1014.5
20260502070059 54 176 2.0 4.0 0.00 0.00 0.00 69 1014.8
20260502064606 54 171 3.0 5.0 0.00 0.00 0.00 69 1014.7
20260502063103 54 155 0.0 4.0 0.00 0.00 0.00 73 1014.7
20260502061612 55 155 0.0 2.0 0.00 0.00 0.00 77 1014.7
20260502060055 55 178 1.0 4.0 0.00 0.00 0.00 81 1014.5
20260502054555 55 179 1.0 4.0 0.00 0.00 0.00 82 1014.5
20260502053103 56 172 0.0 2.0 0.00 0.00 0.00 79 1014.4
20260502051553 57 176 0.0 2.0 0.00 0.00 0.00 75 1014.3
20260502050058 57 172 1.0 2.0 0.00 0.00 0.00 73 1014.2
20260502044553 58 176 0.0 1.0 0.00 0.00 0.00 72 1014.1
20260502043059 58 177 2.0 4.0 0.00 0.00 0.00 71 1013.9
20260502041554 59 155 3.0 5.0 0.00 0.00 0.00 71 1013.7
20260502040054 58 154 3.0 6.0 0.00 0.00 0.00 76 1013.6
20260502034649 59 154 4.0 6.0 0.00 0.00 0.00 76 1013.5
20260502033049 60 177 1.0 5.0 0.00 0.00 0.00 74 1013.3
20260502031550 62 160 1.0 4.0 0.00 0.00 0.00 72 1013.1
20260502030046 62 179 2.0 4.0 0.00 0.00 0.00 72 1012.8
20260502024558 62 178 4.0 6.0 0.00 0.00 0.00 72 1012.6
20260502023045 64 178 3.0 5.0 0.00 0.00 0.00 70 1012.5
20260502021547 66 178 1.0 3.0 0.00 0.00 0.00 67 1012.4
20260502020045 67 178 2.0 5.0 0.00 0.00 0.00 63 1012.2
20260502014543 68 178 3.0 7.0 0.00 0.00 0.00 62 1012.2
20260502013043 68 179 5.0 9.0 0.00 0.00 0.00 66 1012.1
20260502011543 69 174 5.0 8.0 0.00 0.00 0.00 64 1012.0
20260502010042 70 151 6.0 10.0 0.00 0.00 0.00 60 1012.0
20260502004542 71 171 5.0 10.0 0.00 0.00 0.00 57 1011.9
20260502003040 73 178 5.0 8.0 0.00 0.00 0.00 52 1012.0
20260502001538 73 177 1.0 6.0 0.00 0.00 0.00 51 1012.0
20260502000040 72 177 1.0 7.0 0.00 0.00 0.00 53 1012.0
20260501234535 73 153 2.0 6.0 0.00 0.00 0.00 51 1012.1
20260501233032 72 150 1.0 8.0 0.00 0.00 0.00 50 1012.1
20260501231531 72 148 5.0 8.0 0.00 0.00 0.00 52 1012.2
20260501230033 72 179 1.0 4.0 0.00 0.00 0.00 51 1012.4
20260501224525 72 173 2.0 8.0 0.00 0.00 0.00 53 1012.7
20260501223024 72 150 3.0 5.0 0.00 0.00 0.00 54 1012.8
20260501221522 71 174 4.0 7.0 0.00 0.00 0.00 56 1012.9
20260501220021 71 179 4.0 8.0 0.00 0.00 0.00 57 1013.1
20260501214521 70 150 2.0 6.0 0.00 0.00 0.00 56 1013.3
20260501213019 71 150 2.0 6.0 0.00 0.00 0.00 57 1013.3
20260501211517 69 155 2.0 6.0 0.00 0.00 0.00 58 1013.4
20260501210017 68 174 2.0 10.0 0.00 0.00 0.00 60 1013.6
20260501204515 69 151 3.0 9.0 0.00 0.00 0.00 60 1013.8
20260501203017 69 179 4.0 6.0 0.00 0.00 0.00 58 1014.1